Location: Mentone
(34.5413°N, 85.5351°W)
Time: 18:24:05
(UTC-06:00)

Tiros 1 despin weight - Visible Passes

Search period start: 11 December 2017 00:00
Search period end: 21 December 2017 00:00
Orbit: 595 x 643 km, 48.2° (Epoch: 11 December)

Date Brightness Start Highest point End Pass type
(mag) Time Alt. Az. Time Alt. Az. Time Alt. Az.
11 Dec ? 03:32:48 14° E 03:32:48 14° E 03:33:28 10° E visible
11 Dec ? 05:09:54 36° W 05:11:11 48° SW 05:15:26 10° SSE visible
12 Dec ? 03:49:21 21° ESE 03:49:21 21° ESE 03:50:54 10° ESE visible
12 Dec ? 05:26:28 19° WSW 05:27:51 22° SW 05:31:16 10° S visible
13 Dec ? 04:05:58 25° SE 04:05:58 25° SE 04:07:51 10° SE visible
14 Dec ? 04:22:38 19° S 04:22:38 19° S 04:24:11 10° SSE visible
15 Dec ? 04:39:21 10° SSW 04:39:21 10° SSW 04:39:28 10° SSW visible
15 Dec ? 18:37:36 10° S 18:39:23 18° SSE 18:39:23 18° SSE visible
16 Dec ? 18:53:31 10° SSW 18:56:03 30° SSW 18:56:03 30° SSW visible
17 Dec ? 17:30:54 10° SSE 17:33:42 16° SE 17:35:34 13° ESE visible
17 Dec ? 19:10:10 10° SW 19:12:40 31° WSW 19:12:40 31° WSW visible
18 Dec ? 17:46:06 10° SSW 17:50:18 33° SE 17:52:08 24° E visible
18 Dec ? 19:27:21 10° WSW 19:29:14 22° W 19:29:14 22° W visible
19 Dec ? 18:02:22 10° SW 18:07:02 70° SE 18:08:37 40° ENE visible
19 Dec ? 19:44:57 10° W 19:45:43 14° WNW 19:45:43 14° WNW visible
20 Dec ? 18:19:17 10° WSW 18:23:55 61° NW 18:25:03 46° NNE visible
